• In Lithuania
  • List of Countries
  • For 7 days
  • Water Temperature
  • Satellite Maps
  • Weather Map
  • Weather Widgets
  • user-avatar
    Login

    Hourly Weather Bujumbura

    Today, 23 September, Sunday

    Time Temperature Precipitation Wind Pressure Humidity
    00:00 +25°C° 0 mm 1 mps 690 mmHg 63%
    01:00 +25°C° 0 mm 1 mps 690 mmHg 64%
    02:00 +25°C° 0 mm 1 mps 690 mmHg 64%
    03:00 +25°C° 0 mm 1 mps 690 mmHg 64%
    04:00 +24°C° 0 mm 1 mps 690 mmHg 65%
    05:00 +24°C° 0 mm 1 mps 690 mmHg 65%
    06:00 +25°C° 0 mm 1 mps 691 mmHg 61%
    07:00 +27°C° 0 mm 1 mps 692 mmHg 56%
    08:00 +28°C° 0 mm 2 mps 692 mmHg 52%
    09:00 +30°C° 0 mm 2 mps 692 mmHg 47%
    10:00 +32°C° 0 mm 2 mps 692 mmHg 42%
    11:00 +35°C° 0 mm 2 mps 692 mmHg 37%
    12:00 +35°C° 0 mm 2 mps 691 mmHg 36%
    13:00 +35°C° 0 mm 2 mps 691 mmHg 36%
    14:00 +35°C° 0 mm 2 mps 690 mmHg 35%
    15:00 +34°C° 0 mm 2 mps 690 mmHg 37%
    16:00 +32°C° 0 mm 1 mps 689 mmHg 40%
    17:00 +31°C° 0 mm 1 mps 689 mmHg 43%
    18:00 +30°C° 0 mm 1 mps 689 mmHg 46%
    19:00 +29°C° 0 mm 1 mps 690 mmHg 49%
    20:00 +27°C° 0 mm 1 mps 690 mmHg 53%
    21:00 +27°C° 0 mm 1 mps 690 mmHg 55%
    22:00 +26°C° 0 mm 1 mps 691 mmHg 57%
    23:00 +26°C° 0 mm 1 mps 691 mmHg 58%

    Tomorrow, 24 September, Monday

    Time Temperature Precipitation Wind Pressure Humidity
    00:00 +25°C° 0 mm 1 mps 690 mmHg 59%
    01:00 +25°C° 0 mm 1 mps 690 mmHg 60%
    02:00 +25°C° 0 mm 1 mps 690 mmHg 61%
    03:00 +24°C° 0 mm 1 mps 690 mmHg 62%
    04:00 +24°C° 0 mm 1 mps 690 mmHg 63%
    05:00 +24°C° 0 mm 1 mps 690 mmHg 64%
    06:00 +25°C° 0 mm 1 mps 691 mmHg 58%
    07:00 +27°C° 0 mm 1 mps 691 mmHg 53%
    08:00 +29°C° 0 mm 1 mps 692 mmHg 47%
    09:00 +30°C° 0 mm 1 mps 692 mmHg 43%
    10:00 +32°C° 0 mm 2 mps 692 mmHg 39%
    11:00 +35°C° 0 mm 2 mps 693 mmHg 35%
    12:00 +35°C° 0 mm 2 mps 692 mmHg 35%
    13:00 +35°C° 0 mm 2 mps 691 mmHg 35%
    14:00 +35°C° 0 mm 2 mps 690 mmHg 34%
    15:00 +34°C° 0.1 mm 2 mps 690 mmHg 37%
    16:00 +32°C° 0.1 mm 1 mps 689 mmHg 40%
    17:00 +31°C° 0.1 mm 1 mps 689 mmHg 42%
    18:00 +30°C° 0 mm 1 mps 690 mmHg 45%
    19:00 +29°C° 0 mm 1 mps 690 mmHg 49%
    20:00 +27°C° 0 mm 1 mps 691 mmHg 52%
    21:00 +27°C° 0 mm 1 mps 691 mmHg 54%
    22:00 +26°C° 0 mm 1 mps 691 mmHg 56%
    23:00 +25°C° 0 mm 1 mps 691 mmHg 58%

    Day after tomorrow, 25 September, Tuesday

    Time Temperature Precipitation Wind Pressure Humidity
    00:00 +25°C° 0 mm 1 mps 690 mmHg 59%
    01:00 +25°C° 0 mm 1 mps 690 mmHg 60%
    02:00 +24°C° 0 mm 1 mps 689 mmHg 61%
    03:00 +24°C° 0 mm 1 mps 689 mmHg 61%
    04:00 +24°C° 0 mm 1 mps 690 mmHg 62%
    05:00 +23°C° 0 mm 1 mps 690 mmHg 62%
    06:00 +25°C° 0 mm 1 mps 691 mmHg 56%
    07:00 +27°C° 0 mm 1 mps 692 mmHg 49%
    08:00 +29°C° 0 mm 2 mps 692 mmHg 43%
    09:00 +31°C° 0 mm 2 mps 692 mmHg 39%
    10:00 +34°C° 0 mm 2 mps 692 mmHg 35%
    11:00 +36°C° 0 mm 2 mps 693 mmHg 31%
    12:00 +36°C° 0 mm 2 mps 691 mmHg 30%
    13:00 +35°C° 0 mm 2 mps 690 mmHg 30%
    14:00 +35°C° 0 mm 2 mps 689 mmHg 30%
    15:00 +34°C° 0 mm 2 mps 689 mmHg 33%
    16:00 +32°C° 0 mm 2 mps 689 mmHg 35%
    17:00 +31°C° 0 mm 1 mps 689 mmHg 38%
    18:00 +30°C° 0 mm 1 mps 689 mmHg 41%
    19:00 +28°C° 0 mm 1 mps 690 mmHg 44%
    20:00 +27°C° 0 mm 1 mps 690 mmHg 48%
    21:00 +27°C° 0 mm 1 mps 691 mmHg 49%
    22:00 +26°C° 0 mm 1 mps 691 mmHg 50%
    23:00 +26°C° 0 mm 1 mps 691 mmHg 51%

    26 September, Wednesday

    Time Temperature Precipitation Wind Pressure Humidity
    00:00 +25°C° 0 mm 1 mps 690 mmHg 51%
    01:00 +25°C° 0 mm 1 mps 690 mmHg 52%
    02:00 +25°C° 0 mm 1 mps 689 mmHg 53%
    03:00 +25°C° 0 mm 1 mps 690 mmHg 53%
    04:00 +25°C° 0 mm 1 mps 690 mmHg 53%
    05:00 +24°C° 0 mm 1 mps 690 mmHg 53%
    06:00 +26°C° 0 mm 1 mps 691 mmHg 50%
    07:00 +27°C° 0 mm 1 mps 692 mmHg 48%
    08:00 +29°C° 0 mm 2 mps 693 mmHg 46%
    09:00 +31°C° 0 mm 2 mps 693 mmHg 41%
    10:00 +34°C° 0 mm 2 mps 693 mmHg 37%
    11:00 +36°C° 0 mm 2 mps 693 mmHg 33%
    12:00 +36°C° 0 mm 2 mps 691 mmHg 33%
    13:00 +35°C° 0 mm 2 mps 690 mmHg 33%
    14:00 +35°C° 0 mm 2 mps 689 mmHg 33%
    15:00 +34°C° 0 mm 2 mps 689 mmHg 35%
    16:00 +32°C° 0 mm 2 mps 689 mmHg 38%
    17:00 +31°C° 0 mm 1 mps 689 mmHg 40%
    18:00 +30°C° 0 mm 1 mps 689 mmHg 43%
    19:00 +29°C° 0 mm 1 mps 690 mmHg 46%
    20:00 +28°C° 0 mm 1 mps 690 mmHg 49%
    21:00 +27°C° 0 mm 1 mps 690 mmHg 50%
    22:00 +27°C° 0 mm 1 mps 691 mmHg 50%
    23:00 +27°C° 0 mm 1 mps 691 mmHg 51%

    27 September, Thursday

    Time Temperature Precipitation Wind Pressure Humidity
    00:00 +27°C° 0 mm 1 mps 690 mmHg 53%
    01:00 +26°C° 0 mm 1 mps 690 mmHg 54%
    02:00 +26°C° 0 mm 1 mps 689 mmHg 56%
    03:00 +26°C° 0 mm 1 mps 690 mmHg 56%
    04:00 +23°C° 0 mm 0 mps 690 mmHg 57%
    05:00 +23°C° 0 mm 0 mps 690 mmHg 58%
    06:00 +26°C° 0 mm 1 mps 691 mmHg 56%
    07:00 +27°C° 0 mm 1 mps 691 mmHg 54%
    08:00 +28°C° 0 mm 2 mps 692 mmHg 51%
    09:00 +30°C° 0 mm 2 mps 692 mmHg 49%
    10:00 +31°C° 0 mm 2 mps 692 mmHg 47%
    11:00 +32°C° 0 mm 2 mps 691 mmHg 45%
    12:00 +31°C° 0.2 mm 2 mps 690 mmHg 48%
    13:00 +31°C° 0.2 mm 2 mps 690 mmHg 51%
    14:00 +30°C° 0.2 mm 2 mps 689 mmHg 54%
    15:00 +29°C° 0.5 mm 2 mps 689 mmHg 57%
    16:00 +29°C° 0.5 mm 1 mps 689 mmHg 59%
    17:00 +28°C° 0.5 mm 1 mps 690 mmHg 61%
    18:00 +27°C° 0.7 mm 1 mps 690 mmHg 66%
    19:00 +27°C° 0.7 mm 1 mps 691 mmHg 70%
    20:00 +26°C° 0.7 mm 1 mps 691 mmHg 74%
    21:00 +25°C° 0.2 mm 1 mps 691 mmHg 76%
    22:00 +25°C° 0.2 mm 1 mps 691 mmHg 78%
    23:00 +25°C° 0.2 mm 1 mps 691 mmHg 79%

    28 September, Friday

    Time Temperature Precipitation Wind Pressure Humidity
    00:00 +25°C° 0.2 mm 1 mps 691 mmHg 80%
    01:00 +24°C° 0.2 mm 1 mps 690 mmHg 82%
    02:00 +24°C° 0.2 mm 1 mps 690 mmHg 83%
    03:00 +24°C° 0.3 mm 1 mps 690 mmHg 84%
    04:00 +24°C° 0.3 mm 1 mps 691 mmHg 85%
    05:00 +23°C° 0.3 mm 1 mps 691 mmHg 87%
    06:00 +24°C° 0.1 mm 1 mps 691 mmHg 83%
    07:00 +25°C° 0.1 mm 2 mps 692 mmHg 78%
    08:00 +26°C° 0.1 mm 2 mps 693 mmHg 74%
    09:00 +27°C° 0.2 mm 2 mps 692 mmHg 70%
    10:00 +28°C° 0.2 mm 2 mps 692 mmHg 67%
    11:00 +30°C° 0.2 mm 2 mps 692 mmHg 63%
    12:00 +30°C° 0.5 mm 2 mps 691 mmHg 60%
    13:00 +31°C° 0.5 mm 2 mps 690 mmHg 58%
    14:00 +32°C° 0.5 mm 2 mps 689 mmHg 55%
    15:00 +30°C° 1.4 mm 1 mps 689 mmHg 60%
    16:00 +29°C° 1.4 mm 1 mps 689 mmHg 65%
    17:00 +28°C° 1.4 mm 1 mps 689 mmHg 70%
    18:00 +27°C° 1.1 mm 1 mps 690 mmHg 74%
    19:00 +26°C° 1.1 mm 1 mps 690 mmHg 77%
    20:00 +25°C° 1.1 mm 1 mps 691 mmHg 80%
    21:00 +25°C° 0.6 mm 1 mps 691 mmHg 81%
    22:00 +25°C° 0.6 mm 1 mps 691 mmHg 81%
    23:00 +25°C° 0.6 mm 1 mps 691 mmHg 82%
    Show more